Main page
METAR-TAF:

METAR-TAF

Airports :

Houari Boumediene Airport

Algiers, Algeria

latitude: 36-43N, longitude: 003-15E, elevation: 25 m

Current weather observation

The report was made 31 minutes ago, at 19:30 UTC
Wind 1 kt from the West/Southwest
Temperature 9°C
Humidity 93%
Pressure 1025 hPa
Visibility 10 km or more
Few clouds at a height of 2300 ft

METAR: DAAG 271930Z 24001KT 9999 FEW023 09/08 Q1025

Time: 21:01 (20:01 UTC)

Forecast

The report was made 3 hours and 1 minutes ago, at 17:00 UTC
Forecast valid from 27 at 18 UTC to 28 at 18 UTC
Wind 2 kt from variable directions
Visibility 10 km or more
Few clouds at a height of 2600 ft

TAF: DAAG 271700Z 2718/2818 VRB02KT 9999 FEW026

Weather observations and forecasts of more than 4000 airports (METAR and TAF reports).

The available stations are represented by yellow and red dots on the map.

Hover mouse over dot to see the name of the station.

Then click to see weather observations and forecasts.

To change the map : click on the green buttons with a black cross to zoom in, on the green button with a dash to zoom out, or on the green arrows for adjacent maps.


METAR-TAF: